Weather History for Ouarzazate, Morocco

Change the Weather History Date:

Wednesday, April 30, 2014

  Actual Average Record
Temperature  
Mean Temperature 76 °F -  
Max Temperature 92 °F 85 °F - ()
Min Temperature 59 °F 57 °F - ()
Cooling Degree Days 10    
Growing Degree Days 26 (Base 50)    
Moisture  
Dew Point 24 °F    
Average Humidity 16    
Maximum Humidity 34    
Minimum Humidity 4    
Precipitation  
Precipitation 0.00 in 0.01 in - ()
Sea Level Pressure  
Sea Level Pressure 29.92 in    
Wind  
Wind Speed 6 mph ()    
Max Wind Speed 21 mph    
Max Gust Speed 36 mph    
Visibility 8.9 miles    
Events      
T = Trace of Precipitation, MM = Missing Value Source: Averaged Metar Reports

Daily Weather History Graph

Daily Weather History Graph

Search for Another Location

Airport:

Trip Planner

Search our weather history database for the weather conditions in past years. The results will help you decide how hot, cold, wet, or windy it might be!

Date:

Astronomy

Apr. 30, 2014 Rise Set
Actual Time 6:44 AM WEST 8:05 PM WEST
Civil Twilight 6:18 AM WEST 8:31 PM WEST
Nautical Twilight 5:48 AM WEST 9:01 PM WEST
Astronomical Twilight 5:16 AM WEST 9:33 PM WEST
Moon 7:37 AM WEST (4/30) 9:28 PM WEST (4/30)
Length of Visible Light 14h 12m
Length of Day
13h 21m
New Moon, 2% of the Moon is Illuminated
Apr 30
New Moon
May 7
First Quarter
May 14
Full
May 21
Last Quarter
May 28
New

Hourly Weather History & Observations

Time (WEST) Temp. Dew Point Humidity Pressure Visibility Wind Dir Wind Speed Gust Speed Precip Events Conditions
12:00 AM 75.2 °F 30.2 °F 19% 29.95 in - WSW 8.1 mph - N/A   Clear
1:00 AM 72 °F 32 °F 13%  in 12 mi WSW 4.6 mph - -  
1:00 AM 73.4 °F 32.0 °F 22% 29.98 in - WSW 4.6 mph - N/A   Clear
2:00 AM 73.4 °F 32.0 °F 22% 29.95 in - SW 5.8 mph - N/A   Clear
3:00 AM 66.2 °F 32.0 °F 28% 29.95 in - Variable 1.2 mph - N/A   Clear
4:00 AM 64 °F 32 °F 19%  in - NW 3.5 mph - -  
4:00 AM 64.4 °F 33.8 °F 32% 29.92 in - WNW 4.6 mph - N/A   Clear
5:00 AM 62.6 °F 30.2 °F 30% 29.92 in - Variable 2.3 mph - N/A   Clear
6:00 AM 60.8 °F 32.0 °F 34% 29.92 in - WNW 6.9 mph - N/A   Clear
7:00 AM 62 °F 32 °F 21%  in 12 mi WNW 3.5 mph - -  
7:00 AM 62.6 °F 32.0 °F 32% 29.95 in - WNW 3.5 mph - N/A   Clear
8:00 AM 64.4 °F 30.2 °F 28% 29.95 in - Variable 3.5 mph - N/A   Clear
9:00 AM 71.6 °F 33.8 °F 25% 29.98 in - Calm Calm - N/A   Clear
10:00 AM 75 °F 33 °F 12%  in 12 mi Calm Calm - -   Clear
10:00 AM 75.2 °F 32.0 °F 21% 29.98 in - Calm Calm - N/A   Clear
11:00 AM 78.8 °F 30.2 °F 17% 29.98 in - Variable 1.2 mph - N/A   Clear
12:00 PM 82.4 °F 28.4 °F 14% 29.98 in - Variable 2.3 mph - N/A   Clear
1:00 PM 85 °F 25 °F 5%  in 12 mi SW 3.5 mph - -   Clear
1:00 PM 86.0 °F 24.8 °F 11% 29.95 in - Variable 3.5 mph - N/A   Clear
2:00 PM 87.8 °F 19.4 °F 8% 29.92 in 6.2 mi Variable 2.3 mph - N/A   Partly Cloudy
3:00 PM 89.6 °F 19.4 °F 8% 29.89 in 6.2 mi Variable 4.6 mph - N/A   Partly Cloudy
4:00 PM 91 °F 6 °F 4%  in 12 mi SSW 12.7 mph - -   Scattered Clouds
4:00 PM 91.4 °F 6.8 °F 4% 29.89 in 6.2 mi SSW 12.7 mph - N/A   Partly Cloudy
4:46 PM 91.4 °F 6.8 °F 4% 29.83 in 6.2 mi South 19.6 mph 33.4 mph N/A   Partly Cloudy
5:00 PM 91.4 °F 6.8 °F 4% 29.86 in 6.2 mi SSW 20.7 mph 35.7 mph N/A   Partly Cloudy
6:00 PM 91.4 °F -0.4 °F 4% 29.86 in 6.2 mi South 15.0 mph - N/A   Partly Cloudy
7:00 PM 89 °F 4 °F 4%  in 12 mi WSW 16.1 mph - -   Scattered Clouds
7:00 PM 87.8 °F 5.0 °F 4% 29.86 in 6.2 mi WSW 16.1 mph - N/A   Scattered Clouds
8:00 PM 86.0 °F 1.4 °F 4% 29.89 in 6.2 mi WSW 15.0 mph - N/A   Scattered Clouds
9:00 PM 82.4 °F 5.0 °F 5% 29.89 in - WSW 18.4 mph - N/A   Clear
10:00 PM 78 °F 37 °F 13%  in 12 mi West 11.5 mph - -   Clear
10:00 PM 77.0 °F 37.4 °F 24% 29.92 in - West 11.5 mph - N/A   Clear
11:00 PM 77.0 °F 37.4 °F 24% 29.95 in - WSW 6.9 mph - N/A   Clear